Location: Unspecified
(58.9933°N, 5.6375°E)
Time: 02:07:11
(UTC+02:00)

CZ-3 Stage 3 - Visible Passes

Search period start: 21 April 2014 00:00
Search period end: 01 May 2014 00:00
Orbit: 476 x 34781 km, 30.6° (Epoch: 19 April)

Date Brightness Start Highest point End Pass type
(mag) Time Alt. Az. Time Alt. Az. Time Alt. Az.
22 Apr 6.1 03:43:50 12° S 03:48:52 14° S 04:04:27 10° SSE visible
25 Apr 6.2 03:42:47 12° S 03:48:00 14° S 04:02:24 10° SSE visible
28 Apr 6.3 03:41:45 11° SSW 03:47:09 13° S 04:00:01 10° SSE visible
